TimeEST,TemperatureF,Dew PointF,Humidity,Sea Level PressureIn,VisibilityMPH,Wind Direction,Wind SpeedMPH,Gust SpeedMPH,PrecipitationIn,Events,Conditions,WindDirDegrees,DateUTC
12:52 AM,46.9,32.0,56,30.12,10.0,WSW,13.8,-,N/A,,Partly Cloudy,240,2014-03-02 05:52:00
1:52 AM,48.0,34.0,58,30.10,10.0,WSW,12.7,-,N/A,,Mostly Cloudy,250,2014-03-02 06:52:00
2:36 AM,48.0,36.0,63,30.12,10.0,West,12.7,-,N/A,,Overcast,260,2014-03-02 07:36:00
2:52 AM,48.0,36.0,63,30.10,10.0,West,12.7,-,N/A,,Overcast,260,2014-03-02 07:52:00
3:52 AM,48.0,35.1,61,30.10,10.0,West,12.7,-,N/A,,Overcast,260,2014-03-02 08:52:00
4:52 AM,48.0,36.0,63,30.10,10.0,West,12.7,-,N/A,,Overcast,260,2014-03-02 09:52:00
5:23 AM,46.9,37.0,68,30.12,10.0,West,9.2,-,N/A,,Overcast,260,2014-03-02 10:23:00
5:52 AM,46.9,37.0,68,30.09,10.0,SW,9.2,-,N/A,,Overcast,230,2014-03-02 10:52:00
6:52 AM,48.0,37.9,68,30.09,10.0,WSW,10.4,-,N/A,,Overcast,250,2014-03-02 11:52:00
7:52 AM,50.0,39.0,66,30.08,10.0,WSW,13.8,-,N/A,,Overcast,250,2014-03-02 12:52:00
8:52 AM,53.1,39.9,61,30.06,10.0,West,11.5,-,N/A,,Overcast,260,2014-03-02 13:52:00
9:38 AM,54.0,41.0,62,30.07,10.0,West,12.7,-,N/A,,Overcast,260,2014-03-02 14:38:00
9:52 AM,55.0,42.1,62,30.03,10.0,WSW,12.7,23.0,N/A,,Overcast,250,2014-03-02 14:52:00
10:52 AM,61.0,45.0,56,30.00,10.0,WSW,18.4,34.5,N/A,,Overcast,250,2014-03-02 15:52:00
11:08 AM,61.0,45.0,56,30.03,10.0,West,16.1,25.3,N/A,,Overcast,260,2014-03-02 16:08:00
11:52 AM,61.0,46.0,58,29.96,10.0,WSW,21.9,28.8,N/A,,Overcast,240,2014-03-02 16:52:00
12:22 PM,59.0,46.9,64,30.01,6.0,WSW,16.1,26.5,0.02,Rain,Rain,250,2014-03-02 17:22:00
12:52 PM,57.0,48.9,74,29.97,10.0,West,20.7,29.9,0.04,,Overcast,260,2014-03-02 17:52:00
1:52 PM,57.9,48.9,72,29.94,10.0,WSW,21.9,32.2,N/A,,Overcast,240,2014-03-02 18:52:00
2:52 PM,57.9,46.9,67,29.94,10.0,West,13.8,34.5,0.01,,Overcast,270,2014-03-02 19:52:00
3:52 PM,55.9,46.0,69,29.94,10.0,West,8.1,21.9,0.00,Rain,Light Rain,270,2014-03-02 20:52:00
4:12 PM,54.0,46.9,77,29.99,7.0,WNW,6.9,-,0.00,Rain,Light Rain,300,2014-03-02 21:12:00
4:36 PM,53.1,46.9,80,29.97,10.0,NW,6.9,-,0.01,Rain,Light Rain,320,2014-03-02 21:36:00
4:52 PM,52.0,46.9,83,29.95,10.0,West,6.9,-,0.01,,Overcast,280,2014-03-02 21:52:00
5:06 PM,51.1,46.9,86,29.98,9.0,West,10.4,-,N/A,,Overcast,270,2014-03-02 22:06:00
5:49 PM,51.8,46.4,82,29.97,5.0,WSW,5.8,-,0.00,Rain,Light Rain,250,2014-03-02 22:49:00
5:52 PM,51.1,46.9,86,29.95,5.0,West,5.8,-,0.00,Rain,Light Rain,260,2014-03-02 22:52:00
6:52 PM,51.1,46.9,86,29.93,7.0,WSW,8.1,-,0.07,Rain,Light Rain,250,2014-03-02 23:52:00
7:35 PM,51.1,46.9,86,29.94,5.0,West,5.8,-,0.00,,Overcast,260,2014-03-03 00:35:00
7:52 PM,52.0,46.9,83,29.91,5.0,West,8.1,-,0.00,,Haze,270,2014-03-03 00:52:00
8:02 PM,51.1,46.9,86,29.94,5.0,West,5.8,-,0.01,Rain,Light Rain,270,2014-03-03 01:02:00
8:43 PM,51.1,46.9,86,29.95,5.0,West,8.1,-,0.02,Rain,Light Rain,260,2014-03-03 01:43:00
8:52 PM,51.1,46.9,86,29.91,4.0,WSW,5.8,-,0.03,Rain,Light Rain,250,2014-03-03 01:52:00
9:07 PM,51.1,48.0,89,29.94,2.0,West,5.8,-,0.02,Rain,Light Rain,260,2014-03-03 02:07:00
9:12 PM,51.1,48.0,89,29.94,2.0,West,6.9,-,0.02,Rain,Light Rain,260,2014-03-03 02:12:00
9:25 PM,51.1,48.0,89,29.93,1.2,West,5.8,-,0.04,Rain,Light Rain,270,2014-03-03 02:25:00
9:29 PM,51.1,48.0,89,29.93,0.8,West,5.8,-,0.04,Rain,Light Rain,260,2014-03-03 02:29:00
9:52 PM,51.1,46.9,86,29.88,0.8,West,6.9,-,0.07,Rain,Light Rain,280,2014-03-03 02:52:00
10:04 PM,51.1,46.9,86,29.93,1.2,WNW,8.1,-,0.01,Rain,Light Rain,290,2014-03-03 03:04:00
10:14 PM,50.0,46.0,86,29.92,3.0,West,5.8,-,0.02,Rain,Light Rain,270,2014-03-03 03:14:00
10:52 PM,50.0,46.9,89,29.84,6.0,SSW,4.6,-,0.03,Rain,Light Rain,210,2014-03-03 03:52:00
11:02 PM,51.1,46.9,86,29.90,10.0,WSW,8.1,-,0.00,Rain,Light Rain,250,2014-03-03 04:02:00
11:39 PM,51.1,46.9,86,29.89,9.0,West,10.4,-,0.02,Rain,Light Rain,280,2014-03-03 04:39:00
11:52 PM,50.0,46.0,86,29.83,5.0,NW,9.2,-,0.02,Rain,Light Rain,310,2014-03-03 04:52:00